Weather History for Amsterdam, Netherlands

Change the Weather History Date:

Tuesday, October 2, 2012

  Actual Average Record
Temperature  
Mean Temperature 58 °F -  
Max Temperature 63 °F 55 °F 77 °F (2011)
Min Temperature 52 °F 45 °F 42 °F (1996)
Degree Days  
Heating Degree Days 8    
Growing Degree Days 8 (Base 50)    
Moisture  
Dew Point 53 °F    
Average Humidity 85    
Maximum Humidity 94    
Minimum Humidity 63    
Precipitation  
Precipitation 0.00 in - - ()
Sea Level Pressure  
Sea Level Pressure 29.89 in    
Wind  
Wind Speed 12 mph ()    
Max Wind Speed 18 mph    
Max Gust Speed -    
Visibility 6.6 miles    
Events Rain    
Averages and records for this station are not official NWS values.
T = Trace of Precipitation, MM = Missing Value Source: Averaged Metar Reports

Daily Weather History Graph

Daily Weather History Graph

Search for Another Location

Airport:

Trip Planner

Search our weather history database for the weather conditions in past years. The results will help you decide how hot, cold, wet, or windy it might be!

Date:

Astronomy

Oct. 02, 2012 Rise Set
Actual Time 7:44 AM CEST 7:15 PM CEST
Civil Twilight 7:10 AM CEST 7:48 PM CEST
Nautical Twilight 6:30 AM CEST 8:28 PM CEST
Astronomical Twilight 5:50 AM CEST 9:08 PM CEST
Moon 7:52 PM CEST (10/2) 10:20 AM CEST (10/2)
Length of Visible Light 12h 38m
Length of Day
11h 30m
Waning Gibbous, 95% of the Moon is Illuminated
Oct 2
Waning Gibbous
Oct 8
Last Quarter
Oct 15
New
Oct 22
First Quarter
Oct 29
Full

Hourly Weather History & Observations

Time (CEST) Temp. Dew Point Humidity Pressure Visibility Wind Dir Wind Speed Gust Speed Precip Events Conditions
12:25 AM 59.0 °F 55.4 °F 88% 29.89 in 6.2 mi SSW 17.3 mph - N/A   Mostly Cloudy
12:55 AM 57.2 °F 55.4 °F 94% 29.89 in 6.2 mi SSW 17.3 mph - N/A   Scattered Clouds
1:25 AM 57.2 °F 55.4 °F 94% 29.89 in 6.2 mi SSW 16.1 mph - N/A   Mostly Cloudy
1:55 AM 57.2 °F 55.4 °F 94% 29.89 in 6.2 mi SSW 13.8 mph - N/A   Mostly Cloudy
2:00 AM 57 °F 55 °F 92% 29.90 in 8 mi SSW 13.4 mph - - Rain Drizzle
2:25 AM 57.2 °F 55.4 °F 94% 29.89 in 6.2 mi SSW 11.5 mph - N/A   Mostly Cloudy
2:55 AM 57.2 °F 55.4 °F 94% 29.89 in 6.2 mi SSW 12.7 mph - N/A   Mostly Cloudy
3:25 AM 57.2 °F 53.6 °F 88% 29.89 in 6.2 mi SSW 11.5 mph - N/A   Mostly Cloudy
3:55 AM 57.2 °F 55.4 °F 94% 29.89 in 6.2 mi SSW 11.5 mph - N/A   Partly Cloudy
4:25 AM 57.2 °F 55.4 °F 94% 29.89 in 6.2 mi SSW 10.4 mph - N/A   Scattered Clouds
4:55 AM 57.2 °F 55.4 °F 94% 29.86 in 6.2 mi SSW 11.5 mph - N/A   Scattered Clouds
5:00 AM 57 °F 55 °F 90% 29.89 in 8 mi SSW 11.2 mph - -   Overcast
5:25 AM 57.2 °F 55.4 °F 94% 29.89 in 6.2 mi SW 12.7 mph - N/A Rain Light Rain
5:55 AM 55.4 °F 53.6 °F 94% 29.89 in 6.2 mi SW 9.2 mph - N/A   Scattered Clouds
6:25 AM 55.4 °F 53.6 °F 94% 29.89 in 6.2 mi SSW 10.4 mph - N/A   Partly Cloudy
6:55 AM 53.6 °F 51.8 °F 94% 29.89 in 6.2 mi SSW 8.1 mph - N/A   Partly Cloudy
7:25 AM 53.6 °F 51.8 °F 94% 29.89 in 6.2 mi SSW 9.2 mph - N/A   Partly Cloudy
7:55 AM 53.6 °F 51.8 °F 94% 29.89 in 6.2 mi SSW 9.2 mph - N/A   Partly Cloudy
8:00 AM 53 °F 52 °F 94% 29.90 in 9 mi SSW 8.9 mph - -   Partly Cloudy
8:25 AM 53.6 °F 51.8 °F 94% 29.89 in 6.2 mi SSW 10.4 mph - N/A   Partly Cloudy
8:55 AM 55.4 °F 53.6 °F 94% 29.89 in 6.2 mi South 10.4 mph - N/A   Partly Cloudy
9:25 AM 57.2 °F 53.6 °F 88% 29.89 in 6.2 mi SSW 10.4 mph - N/A   Partly Cloudy
9:55 AM 57.2 °F 53.6 °F 88% 29.89 in 6.2 mi SSW 13.8 mph - N/A   Scattered Clouds
10:25 AM 57.2 °F 53.6 °F 88% 29.92 in 6.2 mi SSW 15.0 mph - N/A   Scattered Clouds
10:55 AM 59.0 °F 55.4 °F 88% 29.92 in 6.2 mi SSW 13.8 mph - N/A   Scattered Clouds
11:00 AM 59 °F 55 °F 81% 29.92 in 11 mi SSW 15.7 mph - -   Scattered Clouds
11:25 AM 60.8 °F 57.2 °F 88% 29.92 in 6.2 mi SSW 12.7 mph - N/A   Scattered Clouds
11:55 AM 62.6 °F 55.4 °F 77% 29.92 in 6.2 mi SSW 17.3 mph - N/A   Scattered Clouds
12:25 PM 62.6 °F 53.6 °F 72% 29.92 in 6.2 mi SSW 16.1 mph - N/A   Scattered Clouds
12:55 PM 62.6 °F 53.6 °F 72% 29.92 in 6.2 mi SSW 13.8 mph - N/A   Partly Cloudy
1:25 PM 62.6 °F 51.8 °F 68% 29.92 in 6.2 mi SSW 15.0 mph - N/A   Partly Cloudy
1:55 PM 62.6 °F 51.8 °F 68% 29.89 in 6.2 mi SSW 13.8 mph - N/A   Partly Cloudy
2:00 PM 62 °F 53 °F 63% 29.91 in 17 mi SSW 15.7 mph - -   Partly Cloudy
2:25 PM 62.6 °F 53.6 °F 72% 29.89 in 6.2 mi SSW 16.1 mph - N/A   Partly Cloudy
2:55 PM 62.6 °F 51.8 °F 68% 29.89 in 6.2 mi SSW 13.8 mph - N/A   Partly Cloudy
3:25 PM 62.6 °F 51.8 °F 68% 29.89 in 6.2 mi SSW 17.3 mph - N/A   Partly Cloudy
3:55 PM 62.6 °F 51.8 °F 68% 29.89 in 6.2 mi SSW 16.1 mph - N/A   Partly Cloudy
4:25 PM 60.8 °F 50.0 °F 68% 29.89 in 6.2 mi SSW 13.8 mph - N/A   Partly Cloudy
4:55 PM 60.8 °F 51.8 °F 72% 29.89 in 4.3 mi SSW 12.7 mph - N/A Rain Light Rain Showers
5:00 PM 58 °F 54 °F 81% 29.90 in 5 mi SW 17.9 mph - - Rain Heavy Rain
5:25 PM 59.0 °F 53.6 °F 82% 29.89 in 6.2 mi WSW 12.7 mph - N/A   Scattered Clouds
5:55 PM 59.0 °F 53.6 °F 82% 29.89 in 6.2 mi SSW 11.5 mph - N/A   Partly Cloudy
6:25 PM 59.0 °F 53.6 °F 82% 29.86 in 6.2 mi SSW 12.7 mph - N/A   Partly Cloudy
6:55 PM 57.2 °F 51.8 °F 82% 29.86 in 6.2 mi SSW 15.0 mph - N/A   Partly Cloudy
7:25 PM 55.4 °F 51.8 °F 88% 29.86 in 6.2 mi SSW 9.2 mph - N/A   Partly Cloudy
7:55 PM 55.4 °F 51.8 °F 88% 29.86 in 6.2 mi SSW 9.2 mph - N/A   Partly Cloudy
8:00 PM 55 °F 52 °F 84% 29.89 in 22 mi South 8.9 mph - -   Partly Cloudy
8:25 PM 55.4 °F 51.8 °F 88% 29.86 in 6.2 mi South 8.1 mph - N/A   Partly Cloudy
8:55 PM 55.4 °F 51.8 °F 88% 29.86 in - South 10.4 mph - N/A   Clear
9:25 PM 55.4 °F 51.8 °F 88% 29.86 in - South 11.5 mph - N/A   Clear
9:55 PM 55.4 °F 51.8 °F 88% 29.86 in - South 11.5 mph - N/A   Clear
10:25 PM 55.4 °F 51.8 °F 88% 29.86 in - South 11.5 mph - N/A   Clear
10:55 PM 55.4 °F 51.8 °F 88% 29.83 in - South 10.4 mph - N/A   Clear
11:00 PM 55 °F 51 °F 83% 29.85 in 22 mi South 11.2 mph - -   Overcast
11:25 PM 55.4 °F 51.8 °F 88% 29.83 in - South 13.8 mph - N/A   Clear
11:55 PM 55.4 °F 51.8 °F 88% 29.83 in - South 15.0 mph - N/A   Clear